KINDAKUN ROCKS(AUT) current weather conditions

sailwx.info

Wind from 340 at 2 knots

Air temperature 10.8° C
Dewpoint 9.6° C

Last reported at 2017-Jun-22 17:00 UTC.
Time now 2017-Jun-22 18:29 UTC

Location: N 53°19' W 132°46'.
View on Google Maps.

See reports from other nearby stations

  
Tides and Currents Weather Stations Pressure Air Temp Water Temp Dewpoint Dewpoint Depression Visibility Wind Speed Wind Dir Waves Ship Positions
date/time (UTC)wind fromknots sea level pressurealtimeterstation pressurevisibilityair tempwater tempwave heightnotes
2017-Jun-22 17:00 340 2 10.8
2017-Jun-22 16:00 100 1 10.4
2017-Jun-22 15:00 090 1 10.0
2017-Jun-22 14:00 130 1 9.7
2017-Jun-22 13:00 110 2 10.0
2017-Jun-22 12:00 090 1 9.6
2017-Jun-22 11:00 090 1 9.8
2017-Jun-22 10:00 100 2 10.0
2017-Jun-22 09:00 130 0 10.3
2017-Jun-22 08:00 240 1 10.0
2017-Jun-22 07:00 200 2 10.8
2017-Jun-22 06:00 240 1 11.0
2017-Jun-22 05:00 240 6 10.7
2017-Jun-22 04:00 230 5 10.8
2017-Jun-22 03:00 210 5 10.9
2017-Jun-22 02:00 160 6 10.4
2017-Jun-22 01:00 150 7 10.0
2017-Jun-22 00:00 190 8 10.2
2017-Jun-21 23:00 180 8 10.0
2017-Jun-21 22:00 210 8 10.1
2017-Jun-21 21:00 170 7 10.7
2017-Jun-21 20:00 180 8 11.0
2017-Jun-21 19:00 210 7 10.6
2017-Jun-21 18:00 250 12 11.0
2017-Jun-21 17:00 250 13 10.6
2017-Jun-21 16:00 230 9 11.0
2017-Jun-21 15:00 250 9 10.7
2017-Jun-21 14:00 250 13 10.6
2017-Jun-21 13:00 240 14 10.4
2017-Jun-21 12:00 250 14 10.6
2017-Jun-21 11:00 240 13 11.0
2017-Jun-21 10:00 260 13 10.7
2017-Jun-21 09:00 250 12 10.7
2017-Jun-21 08:00 250 13 10.7
2017-Jun-21 07:00 230 8 10.4
2017-Jun-21 06:00 230 13 11.0
2017-Jun-21 05:00 210 13 11.1
2017-Jun-21 04:00 210 13 11.0
2017-Jun-21 03:00 220 13 11.3
2017-Jun-21 02:00 230 8 11.0
2017-Jun-21 01:00 210 13 11.7
2017-Jun-21 00:00 200 13 11.5
2017-Jun-20 22:00 190 8 10.6
2017-Jun-20 21:00 180 15 11.0
2017-Jun-20 20:00 150 13 11.0
2017-Jun-20 19:00 170 17 10.7
2017-Jun-20 18:00 170 17 gusting 22 11.0